Tracking 19164 objects as of 21-May-2018
HD Live streaming from Space Station
objects crossing your sky now

IRIDIUM 18

Track IRIDIUM 18 now!
10-day predictions
IRIDIUM 18 is classified as:


NORAD ID: 24872
Int'l Code: 1997-034D
Perigee: 768.8 km
Apogee: 771.7 km
Inclination: 86.4 °
Period: 100.1 minutes
Semi major axis: 7141 km
RCS: 3.8649 m2 (large)
Launch date: July 9, 1997
Source: United States (US)
Launch site: AIR FORCE WESTERN TEST RANGE (AFWTR)
aabbcc
Your satellite tracking list
Your tracking list is empty




NASA's NSSDC Master Catalog

Two Line Element Set (TLE):
1 24872U 97034D   18140.43805276 +.00000166 +00000-0 +47782-4 0  9990
2 24872 086.4240 241.0360 0001993 083.4444 276.6982 14.38607844092404
Source of the keplerian elements: AFSPC